Location: San Cesareo
(41.8167°N, 12.8000°E)
Time: 18:43:46
(UTC+00:00)

Daily predictions for brighter satellites

Satellite Brightness Start Highest point End
(mag) Time Altitude Azimuth Time Altitude Azimuth Time Altitude Azimuth
Cosmos 1666 Rocket 3.5 17:20:59 10° S 17:25:16 67° E 17:29:34 10° NNE
Cosmos 1689 Rocket 3.2 17:24:15 10° NE 17:26:38 23° E 17:29:00 10° SSE
CZ-2C R/B 3.4 17:21:21 10° SSE 17:27:08 88° WSW 17:32:42 10° NNW
BREEZE-M DEB (TANK) 3.3 17:19:38 10° SW 17:27:28 46° SSE 17:30:27 10° ENE
Cosmos 2322 Rocket 2.3 17:24:08 10° S 17:29:37 58° ESE 17:35:08 10° NNE
Cosmos 1862 Rocket 4.0 17:25:36 10° N 17:29:51 40° ENE 17:34:04 10° SSE
Sich 1 3.8 17:28:30 10° SSW 17:32:49 60° W 17:37:12 10° N
Aureole 2 Rocket 3.4 17:32:15 10° NNE 17:33:52 15° ENE 17:35:26 10° ESE
Cosmos 1461 4.2 17:30:37 10° SW 17:35:11 48° NW 17:39:48 10° NNE
Meteor 1-25 Rocket 4.2 17:30:53 10° S 17:36:38 78° E 17:42:21 10° NNE
Nadezhda 3 Rocket 4.3 17:31:04 10° N 17:37:14 49° ENE 17:43:21 10° SSE
COSMOS 2428 4.4 17:38:38 10° ESE 17:40:18 11° E 17:41:58 10° ENE
Cosmos 2074 Rocket 4.1 17:34:25 10° S 17:40:42 89° E 17:46:59 10° N
CZ-3 Stage 3 4.3 17:35:05 10° WSW 17:40:42 20° SSW 17:43:11 10° SSE
Cosmos 2154 Rocket 4.0 17:34:54 10° S 17:40:58 58° E 17:47:02 10° NNE
YAOGAN 1 2.6 17:38:00 10° SSE 17:42:14 60° ENE 17:46:31 10° N
Helios 1A Rocket 3.5 17:38:51 10° SE 17:42:31 34° ENE 17:46:11 10° N
Abrixas rocket 3.6 17:41:42 10° WNW 17:43:41 20° N 17:45:41 10° NE
Meteor 1-14 Rocket 4.5 17:39:14 10° SSE 17:44:28 44° E 17:49:41 10° NNE
Cosmos 2219 Rocket 3.6 17:44:05 10° SE 17:47:24 16° E 17:50:43 10° ENE
APEX 3.1 17:45:10 10° NW 17:47:53 54° WSW 17:50:32 10° SSE
GP-B 3.9 17:45:51 10° SE 17:49:42 30° E 17:53:33 10° NNE
COSMO-SKYMED 1 3.9 17:46:52 10° N 17:51:01 44° WNW 17:55:07 10° SW
Cosmos 1992 Rocket 3.9 17:48:16 10° S 17:53:28 74° ESE 17:58:42 10° NNE
SL-16 R/B 2.5 17:48:31 10° SSW 17:54:09 71° WNW 17:59:51 10° NNE
ARGOS 3.2 17:49:57 10° SSE 17:55:17 63° ENE 18:00:39 10° N
Cosmos 2263 Rocket 3.3 17:51:23 10° NW 17:56:42 46° WSW 18:01:58 10° S
Meteor 1-18 Rocket 4.3 17:51:31 10° N 17:57:29 70° E 18:03:20 10° SSE
Cosmos 968 Rocket 3.6 17:52:21 10° NNW 17:57:39 85° WSW 18:02:55 10° SSE
USA 234 3.5 17:53:53 10° ENE 18:00:12 49° SE 18:06:29 10° SSW
Cosmos 2184 Rocket 4.4 17:55:14 10° SSW 18:01:20 66° W 18:07:31 10° N
Cosmos 1633 Rocket 3.7 17:56:59 10° SSW 18:01:20 59° W 18:05:44 10° N
Cosmos 1486 Rocket 4.0 17:56:05 10° NNW 18:01:24 90° ENE 18:06:43 10° SSE
Cosmos 1515 3.6 17:57:46 10° N 18:01:37 88° E 18:05:25 10° S
Okean 1 3.2 17:57:40 10° N 18:01:44 84° E 18:05:45 10° S
SeaSat 1 2.4 17:58:51 10° NNE 18:03:46 65° ESE 18:08:39 10° SSW
Okean 1-7 3.8 18:01:21 10° NNE 18:05:14 31° ENE 18:08:47 12° SE
H-2A R/B 2.5 18:01:13 10° S 18:06:37 73° WSW 18:12:06 10° NNW
CZ-4 R/B 2.0 18:02:56 10° S 18:06:43 57° W 18:10:34 10° NNW
Cosmos 2322 4.4 18:01:52 10° SSE 18:06:51 32° ESE 18:11:50 10° NE
CZ-2C R/B 2.6 18:03:55 10° NNE 18:09:22 64° E 18:14:39 10° S
SAR-Lupe-4 3.6 18:08:12 10° N 18:11:48 80° WNW 18:15:22 10° SSW
SL-8 Rocket 4.3 18:07:12 10° SSE 18:12:58 41° E 18:18:42 10° NNE
Cosmos 2237 4.2 18:07:42 10° SSW 18:13:25 88° ESE 18:19:12 10° NNE
Cosmos 962 Rocket 4.5 18:08:52 10° S 18:14:57 63° E 18:21:09 10° NNE
DMSP B5D2-2 4.3 18:10:43 10° NNE 18:15:44 46° E 18:20:43 10° S
SL-4 R/B 3.4 18:14:50 10° NW 18:17:27 19° NNE 18:18:38 17° NE
Cosmos 1869 Rocket 4.3 18:14:20 10° SSE 18:18:08 30° E 18:21:57 10° NNE
ATLAS CENTAUR R/B 1.2 18:19:50 10° SW 18:23:26 70° NW 18:26:57 11° NNE
FALCON 9 DEB 3.8 18:22:28 10° NW 18:25:41 36° NNE 18:26:13 34° NE
Okean-O 3.7 18:22:17 10° S 18:26:32 46° W 18:30:49 10° NNW
CSL-04 Rocket 3.7 18:22:12 10° SSE 18:27:45 86° WSW 18:33:18 10° NNW
Cosmos 2366 rocket 4.3 18:22:03 10° SSE 18:27:57 44° E 18:33:53 10° NNE
Cosmos 1354 Rocket 3.9 18:22:52 10° NNW 18:28:08 76° ENE 18:33:21 10° SSE
ERS-2 3.4 18:25:32 10° N 18:29:01 43° WNW 18:32:29 10° SW
CSL-04 Debris 4.3 18:23:41 10° S 18:29:07 78° WSW 18:34:37 10° NNW
Cosmos 44 Rocket 3.9 18:24:24 10° NW 18:29:35 61° WSW 18:34:39 10° SSE
Cosmos 1844 Rocket 2.6 18:26:20 10° NNW 18:31:55 71° ENE 18:36:09 18° SSE
Cosmos 2084 Rocket 3.6 18:27:37 10° NW 18:32:01 79° SW 18:34:58 21° SSE
Cosmos 1666 2.5 18:28:52 10° S 18:32:31 61° E 18:36:12 10° NNE
Cosmos 2341 Rocket 3.9 18:30:01 10° S 18:36:20 82° E 18:42:37 10° N
Meteor 1-5 Rocket 4.0 18:31:25 10° S 18:36:44 82° E 18:42:15 10° NNE
Cosmos 1777 Rocket 4.4 18:31:49 10° N 18:36:47 41° ENE 18:37:59 35° E
Cosmos 2333 4.1 18:31:46 10° S 18:37:19 64° ESE 18:42:57 10° NNE
Cosmos 1503 Rocket 4.1 18:33:08 10° NNW 18:38:19 75° WSW 18:43:28 10° SSE
Ariane Rocket 3.3 18:42:04 38° ESE 18:43:12 45° ENE 18:48:03 10° N
Cosmos 2360 Rocket 2.6 18:37:57 10° SW 18:43:33 63° WNW 18:49:11 10° NNE
Cosmos 1844 3.6 18:37:57 10° NNW 18:43:45 74° ENE 18:46:58 27° SE
Okean 3 4.2 18:39:50 10° N 18:42:57 34° NE 18:42:57 34° NE
Cosmos 2278 Rocket 3.6 18:44:52 10° N 18:48:36 20° NE 18:48:36 20° NE
DELTA 2 R/B (1) 4.3 18:45:06 10° SW 18:50:03 34° SSE 18:50:27 33° SE
Cosmos 1727 Rocket 4.3 18:46:19 10° N 18:52:09 42° ENE 18:52:57 41° E
Cosmos 2333 Rocket 2.1 18:47:58 10° SSW 18:53:35 69° ESE 18:59:16 10° NNE
Cosmos 2218 Rocket 3.9 18:48:31 10° S 18:54:53 74° E 19:01:17 10° N
Meteor 2-4 Rocket 4.2 18:49:45 10° NNW 18:55:32 63° W 19:01:22 10° S
Cosmos 1703 Rocket 3.8 18:51:17 10° NNW 18:55:40 68° W 18:59:28 13° S
Resurs 01 Rocket 3.6 19:12:41 17° NNE 19:12:41 17° NNE 19:13:55 10° N
Cosmos 864 Rocket 4.4 19:05:33 10° S 19:11:41 88° W 19:17:56 10° N
Cosmos 2322 Rocket 4.5 19:09:43 10° WSW 19:14:03 23° NW 19:18:26 10° N
Lacrosse 4 Rocket 2.1 19:11:17 10° SSW 19:14:29 49° SSW 19:14:29 49° SSW
Cosmos 1959 Rocket 4.5 19:11:02 10° SSW 19:17:08 78° W 19:23:16 10° N
SME Rocket 4.2 19:11:36 10° NNE 19:19:29 77° WNW 19:24:35 10° SSW
SJ-6B 3.6 19:22:30 52° W 19:22:30 52° W 19:26:23 10° NNW
COSMOS 2428 2.5 19:17:58 10° SSW 19:23:39 87° ESE 19:24:51 58° NNE
MOS 1 4.3 19:25:33 50° S 19:27:04 77° WSW 19:32:46 10° NNW
ASTEX 1 3.7 19:23:56 10° N 19:28:46 63° W 19:30:11 43° SW
Meteor 1-11 Rocket 4.1 19:24:49 10° SSW 19:30:30 62° WNW 19:36:06 10° N
Cosmos 2219 Rocket 2.4 19:25:07 10° SSW 19:30:40 69° WNW 19:36:17 10° NNE
Meteor 1-23 Rocket 4.4 19:25:48 10° N 19:30:27 61° NNE 19:30:27 61° NNE
OBJECT-B 3.9 19:36:25 12° NNW 19:36:25 12° NNW 19:36:46 10° NNW
SJ 16-02 3.5 19:38:17 10° NNW 19:39:35 19° N 19:39:35 19° N
USA 234 3.8 19:39:54 28° NNE 19:43:13 54° NNW 19:49:32 10° WSW
BREEZE-M DEB (TANK) 4.4 19:49:42 10° NW 19:51:09 27° NW 19:51:09 27° NW
Cosmos 2278 Rocket 4.0 20:28:01 10° NNW 20:30:28 26° NW 20:30:28 26° NW
Cosmos 2333 Rocket 4.5 20:34:16 10° W 20:38:25 20° NW 20:42:36 10° N
